Location: Jetmore
(38.0845°N, 99.8935°W)
Time: 18:18:25
(UTC+00:00)

Nauka - Pass Details

Date: 19 September 2021
Orbit: 417 x 423 km, 51.6° (Epoch: 17 October)

Event Time Altitude Azimuth Distance (km) Brightness Sun altitude
Rises 02:28:03 0° 266° (W) 2,355 ? -21.2°
Reaches altitude 10° 02:30:32 10° 285° (WNW) 1,495 ? -21.7°
Maximum altitude 02:33:05 20° 334° (NNW) 1,043 ? -22.1°
Enters shadow 02:34:37 15° 9° (N) 1,230 ? -22.4°
